[[{"header":{"parameterUnit":"m.s-1","parameterCategory":1,"la1":30.2991,"la2":30.254,"lo1":-89.0895,"lo2":-89.0444,"dy":0.0017,"dx":0.0017,"nx":28,"ny":28,"refTime":"2025-03-28T03:00:00:Z","depth":0,"parameterNumber":2,"parameterNumberName":"U-component_of_WINDS"},"data":[0,0,0,0,0,0,0,0,0,0,0,0,0,0,0,0,0,0,0,0,0,0,0,0,0,0,0,0,0,0,0,0,0,0,0,0,0,0,0,0,0,0,0,0,0,0,0,0,0,0,0,0,0,0,0,0,0,0,-5.1716,-5.1719,0,-5.1911,-5.1913,-5.1915,-5.1941,-5.1939,-5.1937,-5.1935,-5.2137,-5.2144,-5.2151,0,0,0,0,0,0,0,0,0,0,0,0,0,-5.1369,-5.1376,-5.1716,-5.1719,-5.1721,-5.191,-5.1913,-5.1916,-5.1941,-5.1939,-5.1936,-5.1934,-5.2135,-5.2143,-5.2152,0,0,0,0,0,0,0,0,0,0,0,0,0,-5.1538,-5.1378,-5.1716,-5.1756,-5.1762,-5.191,-5.1913,-5.1916,-5.1941,-5.1939,-5.1936,-5.1933,-5.2132,-5.2143,-5.2153,-5.2275,0,0,-5.2186,-5.219,0,0,0,0,0,0,0,0,-5.1528,-5.155,-5.1748,-5.1754,-5.176,-5.1898,-5.1865,-5.2037,-5.1942,-5.1873,-5.1935,-5.1932,-5.206,-5.2077,-5.2119,-5.2284,-5.2293,-5.2187,-5.2193,-5.2198,-5.2201,0,0,0,0,0,0,0,-5.1516,-5.1542,-5.1793,-5.1751,-5.1759,-5.1766,-5.1787,-5.1898,-5.198,-5.1879,-5.1881,-5.1904,-5.2063,-5.2109,-5.2124,-5.2296,-5.2186,-5.2196,-5.2203,-5.2207,-5.2569,-5.2572,0,0,0,0,0,0,-5.1497,-5.1532,-5.1787,-5.1799,-5.1635,-5.1774,-5.1797,-5.1857,-5.1979,-5.1995,-5.1906,-5.1904,-5.2092,-5.2112,-5.2132,-5.2281,-5.2198,-5.2208,-5.2214,-5.2566,-5.2569,-5.2573,0,0,0,0,0,0,-5.1489,-5.1519,-5.1779,-5.1666,-5.17,-5.1783,-5.185,-5.1862,-5.1908,-5.1999,-5.2015,-5.1938,-5.2091,-5.2117,-5.2238,-5.2288,-5.2213,-5.2222,-5.2562,-5.2567,-5.2571,-5.258,0,0,0,0,0,0,-5.1479,-5.1516,-5.1563,-5.1667,-5.1706,-5.1882,-5.1853,-5.1868,-5.1926,-5.1926,-5.2033,-5.2048,-5.2091,-5.2222,-5.2249,-5.2301,-5.2231,-5.2558,-5.2564,-5.257,-5.2576,-5.2585,-5.2592,0,0,0,0,0,-5.1467,-5.1559,-5.1565,-5.1596,-5.1766,-5.1885,-5.1907,-5.1953,-5.193,-5.1978,-5.2036,-5.2045,-5.2278,-5.2235,-5.2265,-5.2321,-5.2555,-5.2562,-5.2569,-5.2572,-5.2583,-5.2592,0,0,0,0,0,0,-5.146,-5.1574,-5.1582,-5.171,-5.1787,-5.1889,-5.1951,-5.1964,-5.205,-5.2046,-5.2101,-5.2125,-5.2244,-5.2295,-5.2244,-5.2444,-5.2415,-5.2428,-5.2406,-5.2417,-5.2425,-5.241,-5.2239,0,0,0,0,0,-5.1474,-5.156,-5.1655,-5.1759,-5.1797,-5.1867,-5.1921,-5.1949,-5.2032,-5.2065,-5.2133,-5.2214,-5.2305,-5.2364,-5.2454,-5.2584,-5.2607,-5.2637,-5.2645,-5.2652,-5.2663,-5.2733,-5.2748,-5.2597,-5.2597,-5.2596,0,0,-5.1503,-5.1575,-5.1627,-5.176,-5.1823,-5.1911,-5.1895,-5.199,-5.2056,-5.208,-5.2198,-5.2251,-5.2345,-5.247,-5.2529,-5.2517,-5.2709,-5.2661,-5.2665,-5.2673,-5.2742,-5.2757,-5.2769,-5.2602,-5.2601,-5.26,0,0,-5.16,-5.1664,-5.1757,-5.182,-5.1915,-5.1961,-5.1983,-5.2083,-5.2117,-5.2237,-5.2256,-5.2337,-5.2494,-5.2559,-5.2613,-5.2733,-5.2744,-5.2761,-5.2804,-5.2872,-5.2884,-5.2895,-5.2936,-5.2951,-5.2772,-5.2772,-5.2772,0,-5.1624,-5.1757,-5.1803,-5.1897,-5.1954,-5.1979,-5.2073,-5.2133,-5.2253,-5.2292,-5.2277,-5.2472,-5.2538,-5.2678,-5.2707,-5.2751,-5.2777,-5.2749,-5.2878,-5.289,-5.2901,-5.2941,-5.2956,-5.2773,-5.2773,-5.2773,-5.2773,0,-5.1782,-5.1874,-5.1937,-5.205,-5.2115,-5.2209,-5.2269,-5.233,-5.2352,-5.24,-5.252,-5.2599,-5.2704,-5.274,-5.2764,-5.2884,-5.2873,-5.2867,-5.2838,-5.2915,-5.2954,-5.297,-5.2775,-5.2774,-5.2774,-5.2774,0,0,-5.1881,-5.2017,-5.2039,-5.209,-5.2196,-5.2269,-5.2363,-5.2464,-5.2514,-5.2596,-5.2676,-5.2808,-5.2803,-5.2864,-5.2895,-5.2956,-5.3044,-5.2943,-5.2946,-5.2957,-5.3179,-5.3182,-5.3199,-5.3052,-5.3055,-5.3058,-5.3171,0,-5.199,-5.2157,-5.22,-5.2343,-5.2428,-5.2452,-5.2534,-5.2608,-5.2655,-5.2734,-5.2787,-5.2878,-5.2865,-5.2902,-5.2962,-5.302,-5.3089,-5.3013,-5.3127,-5.313,-5.3101,-5.3219,-5.3223,-5.3326,-5.3186,-5.3189,-5.3191,0,-5.2139,-5.2222,-5.2372,-5.2465,-5.2502,-5.2575,-5.267,-5.2746,-5.2831,-5.286,-5.2927,-5.2953,-5.3052,-5.3018,-5.3156,-5.3103,-5.3152,-5.3188,-5.3193,-5.3205,-5.3165,-5.3233,-5.336,-5.3375,-5.3215,-5.3214,-5.3212,0,-5.2195,-5.2344,-5.2452,-5.2495,-5.2607,-5.2658,-5.2707,-5.2788,-5.2846,-5.2929,-5.2967,-5.3062,-5.3114,-5.3187,-5.3237,-5.3208,-5.337,-5.334,-5.3397,-5.3396,-5.343,-5.3427,-5.3565,-5.3463,-5.3463,-5.3463,-5.3462,0,-5.2311,-5.2402,-5.2478,-5.2545,-5.2647,-5.2697,-5.2797,-5.2847,-5.2919,-5.2996,-5.3024,-5.3096,-5.3158,-5.3239,-5.3279,-5.3386,-5.341,-5.3437,-5.3446,-5.3434,-5.343,-5.3466,-5.346,-5.3467,-5.3466,-5.3465,-5.3465,0,-5.2391,-5.2446,-5.2565,-5.266,-5.2686,-5.2757,-5.2839,-5.2905,-5.2952,-5.3049,-5.3075,-5.3149,-5.3245,-5.3302,-5.3425,-5.3452,-5.357,-5.3577,-5.354,-5.3545,-5.3597,-5.3591,-5.3764,-5.3788,-5.367,-5.3671,-5.3672,0,-5.2461,-5.2531,-5.2632,-5.2685,-5.2734,-5.2819,-5.2877,-5.2928,-5.2987,-5.3087,-5.3141,-5.3239,-5.3319,-5.3472,-5.3537,-5.363,-5.364,-5.3693,-5.3654,-5.3639,-5.3639,-5.3634,-5.3641,-5.37,-5.3701,-5.3702,-5.3702,0,-5.2579,-5.2602,-5.2684,-5.2775,-5.2842,-5.2917,-5.2991,-5.3033,-5.3096,-5.3161,-5.3259,-5.3321,-5.3445,-5.3541,-5.3639,-5.3691,-5.3708,-5.3714,-5.3732,-5.372,-5.3695,-5.3708,-5.3557,-5.371,-5.3709,-5.3709,-5.3708,-5.3708,-5.2656,-5.2718,-5.2799,-5.2888,-5.2949,-5.3017,-5.3083,-5.3136,-5.3218,-5.3321,-5.3347,-5.3449,-5.353,-5.3664,-5.3718,-5.3799,-5.379,-5.3817,-5.3823,-5.3829,-5.3829,-5.3682,-5.3817,-5.3817,-5.3817,-5.3817,-5.3817,0,-5.2775,-5.2827,-5.2909,-5.301,-5.308,-5.3087,-5.3169,-5.3228,-5.3317,-5.3391,-5.3468,-5.358,-5.3673,-5.3744,-5.384,-5.3891,-5.3901,-5.3914,-5.3911,-5.3922,-5.3832,-5.3806,-5.3905,-5.3905,-5.3905,-5.3905,-5.3905,-5.3905,-5.2845,-5.295,-5.2982,-5.3118,-5.317,-5.3269,-5.3315,-5.3377,-5.3436,-5.3559,-5.3635,-5.368,-5.3754,-5.3854,-5.394,-5.3959,-5.3992,-5.4004,-5.4024,-5.3938,-5.3929,-5.392,-5.3896,-5.4011,-5.4012,-5.4108,-5.4109,-5.4109]},{"header":{"parameterUnit":"m.s-1","parameterCategory":1,"la1":30.2991,"la2":30.254,"lo1":-89.0895,"lo2":-89.0444,"dy":0.0017,"dx":0.0017,"nx":28,"ny":28,"refTime":"2025-03-28T03:00:00:Z","depth":0,"parameterNumber":3,"parameterNumberName":"V-component_of_WINDS"},"data":[0,0,0,0,0,0,0,0,0,0,0,0,0,0,0,0,0,0,0,0,0,0,0,0,0,0,0,0,0,0,0,0,0,0,0,0,0,0,0,0,0,0,0,0,0,0,0,0,0,0,0,0,0,0,0,0,0,0,5.1487,5.1489,0,5.167,5.1672,5.1674,5.1744,5.1744,5.1743,5.1743,5.1917,5.1922,5.1927,0,0,0,0,0,0,0,0,0,0,0,0,0,5.1185,5.119,5.1486,5.1489,5.1491,5.167,5.1672,5.1675,5.1744,5.1744,5.1743,5.1742,5.1916,5.1922,5.1928,0,0,0,0,0,0,0,0,0,0,0,0,0,5.1337,5.1192,5.1486,5.1548,5.1555,5.1669,5.1672,5.1675,5.1744,5.1744,5.1743,5.1742,5.1914,5.1921,5.1929,5.1991,0,0,5.1952,5.1955,0,0,0,0,0,0,0,0,5.1328,5.1348,5.1536,5.1544,5.1552,5.1684,5.163,5.1781,5.1744,5.1672,5.1743,5.1742,5.1839,5.1853,5.1889,5.1999,5.2007,5.1953,5.1957,5.1961,5.1963,0,0,0,0,0,0,0,5.1317,5.134,5.1559,5.1539,5.1549,5.1562,5.1583,5.1659,5.1757,5.1678,5.1684,5.1705,5.1843,5.1881,5.1893,5.2009,5.1953,5.1959,5.1964,5.1967,5.2182,5.2183,0,0,0,0,0,0,5.1298,5.1331,5.1553,5.1564,5.1436,5.1568,5.1592,5.1642,5.1757,5.1774,5.1706,5.1708,5.1868,5.1884,5.19,5.1982,5.1961,5.1968,5.1972,5.2181,5.2182,5.2184,0,0,0,0,0,0,5.1292,5.1318,5.1545,5.1449,5.148,5.1575,5.163,5.1646,5.1684,5.1778,5.1794,5.1727,5.1868,5.1889,5.1969,5.1989,5.1971,5.1978,5.218,5.2181,5.2183,5.2146,0,0,0,0,0,0,5.1283,5.1315,5.1342,5.145,5.1484,5.1615,5.1632,5.165,5.1699,5.1703,5.1802,5.1818,5.1869,5.1958,5.1977,5.1999,5.1984,5.2178,5.2181,5.2182,5.2145,5.2146,5.2146,0,0,0,0,0,5.1272,5.1321,5.1343,5.1369,5.1521,5.1616,5.1636,5.1698,5.17,5.1727,5.1787,5.1814,5.1984,5.1965,5.1988,5.2012,5.2177,5.218,5.2182,5.2145,5.2146,5.2146,0,0,0,0,0,0,5.1207,5.1336,5.1362,5.1448,5.1521,5.1628,5.1663,5.1696,5.1767,5.1767,5.1838,5.186,5.1934,5.1981,5.1958,5.208,5.2082,5.2089,5.2046,5.2048,5.2048,5.2034,5.1991,0,0,0,0,0,5.1204,5.1275,5.1381,5.1447,5.1483,5.1567,5.161,5.1653,5.173,5.1759,5.1826,5.1896,5.1965,5.2009,5.2078,5.2153,5.2175,5.2181,5.2181,5.2181,5.2186,5.223,5.2234,5.2192,5.2192,5.2192,0,0,5.1196,5.1275,5.1314,5.1436,5.1498,5.1566,5.1592,5.1662,5.1713,5.1769,5.1851,5.1901,5.1984,5.2063,5.2101,5.2104,5.2203,5.2184,5.2183,5.2189,5.2233,5.2237,5.224,5.2193,5.2193,5.2193,0,0,5.1217,5.1284,5.1347,5.141,5.1506,5.1562,5.1576,5.168,5.1717,5.1801,5.1845,5.1904,5.2022,5.208,5.2125,5.2171,5.2199,5.2191,5.2192,5.2234,5.2237,5.2241,5.2257,5.2262,5.2196,5.2196,5.2196,0,5.1193,5.1303,5.1374,5.1445,5.1496,5.1555,5.1618,5.1674,5.1784,5.1817,5.1821,5.1973,5.2032,5.2126,5.2138,5.2172,5.219,5.2179,5.2232,5.2236,5.224,5.2257,5.2263,5.2194,5.2194,5.2194,5.2195,0,5.127,5.1344,5.1383,5.1495,5.1551,5.1616,5.1695,5.1743,5.1781,5.1835,5.192,5.1995,5.208,5.2106,5.2141,5.2205,5.2204,5.2219,5.2223,5.2241,5.2258,5.2265,5.2192,5.2193,5.2193,5.2193,0,0,5.1253,5.1407,5.142,5.1472,5.1583,5.164,5.1708,5.1797,5.1836,5.1911,5.1968,5.2068,5.2084,5.2135,5.2177,5.2214,5.2247,5.2225,5.2228,5.2226,5.2322,5.231,5.2316,5.2267,5.2268,5.227,5.2315,0,5.1289,5.1418,5.1486,5.1584,5.1654,5.1713,5.1772,5.1844,5.1897,5.1961,5.2018,5.2089,5.2104,5.2135,5.2175,5.2235,5.2267,5.2232,5.2318,5.232,5.2296,5.2325,5.2313,5.2352,5.2322,5.2323,5.2324,0,5.1348,5.1428,5.1535,5.1641,5.1672,5.1725,5.1813,5.1874,5.1957,5.1993,5.2052,5.2095,5.2166,5.2165,5.2263,5.2238,5.2277,5.2312,5.2315,5.2325,5.2323,5.2335,5.2366,5.2371,5.2335,5.2334,5.2333,0,5.1326,5.1459,5.1542,5.1585,5.1709,5.1745,5.1797,5.188,5.193,5.2005,5.2038,5.2119,5.2163,5.2223,5.2285,5.2279,5.2377,5.2382,5.2407,5.2405,5.2424,5.2422,5.2461,5.2449,5.2449,5.2449,5.2449,0,5.1359,5.1422,5.1534,5.1585,5.1657,5.1733,5.1801,5.1857,5.1931,5.1991,5.2045,5.2099,5.2179,5.2243,5.2291,5.2365,5.2384,5.2413,5.2425,5.2409,5.2405,5.2434,5.2433,5.2451,5.245,5.245,5.245,0,5.1345,5.1424,5.1518,5.163,5.1659,5.1708,5.1802,5.1851,5.1909,5.1984,5.2006,5.2094,5.2172,5.2242,5.2343,5.2376,5.2451,5.2466,5.2425,5.2431,5.2453,5.245,5.2512,5.2524,5.2504,5.2504,5.2504,0,5.1362,5.1413,5.1532,5.1579,5.1633,5.1706,5.1759,5.1835,5.1887,5.1987,5.2024,5.2107,5.2178,5.2299,5.2369,5.2448,5.2465,5.2481,5.2476,5.2458,5.2465,5.2461,5.2467,5.248,5.248,5.248,5.248,0,5.1382,5.1419,5.1496,5.1586,5.1649,5.1722,5.1797,5.1831,5.192,5.1975,5.2059,5.2114,5.2221,5.2302,5.2389,5.2439,5.2473,5.2481,5.2491,5.2474,5.2448,5.2463,5.2424,5.2479,5.2479,5.2479,5.2479,5.2479,5.1384,5.1433,5.1526,5.161,5.1675,5.1744,5.1798,5.1864,5.1936,5.2032,5.2071,5.2156,5.2238,5.2359,5.2409,5.2474,5.248,5.2494,5.2498,5.25,5.2498,5.2439,5.249,5.249,5.249,5.249,5.249,0,5.1408,5.1471,5.1548,5.1654,5.1719,5.1752,5.1836,5.1888,5.1963,5.2039,5.2109,5.2204,5.2284,5.2362,5.2445,5.2482,5.25,5.2501,5.2499,5.251,5.2487,5.2471,5.2486,5.2486,5.2486,5.2486,5.2486,5.2486,5.1428,5.1513,5.1561,5.1678,5.174,5.1828,5.1874,5.1937,5.1998,5.2104,5.2173,5.2225,5.2302,5.2391,5.2465,5.2486,5.2513,5.251,5.2535,5.2512,5.2511,5.2511,5.2496,5.2516,5.2516,5.2553,5.2553,5.2553]}]]